Home   Weather   Bridgewater   Past weeks

Flag for USA Past Weather in Bridgewater, Massachusetts, USA — Yesterday and Last 2 Weeks

Now
57 °F

Fog.


Feels Like: 57 °F
Forecast: 54 / 77 °F
Wind: 3 mph from North

Location: Taunton Municipal Airport

Current Time: Apr 28, 2017 at 6:47:36 am

Latest Report: Apr 28, 2017 at 6:23 am


Visibility: 1 mi

Pressure: 29.94 "Hg

Humidity: 96%

Dew Point: 56 °F

Location of BridgewaterLocation

Past Weather in Bridgewater — Graph

°F

Bridgewater Temperature Yesterday

Maximum temperature yesterday: 69 °F (at 3:33 pm)
Minimum temperature yesterday: 53 °F (at 4:20 am)
Average temperature yesterday: 58 °F

High & Low Weather Summary for the Past Weeks

 TemperatureHumidityPressure
High83 °F (Apr 16, 1:52 pm)97% (Apr 19, 6:52 am)30.58 "Hg (Apr 19, 6:52 am)
Low30 °F (Apr 14, 4:52 am)17% (Apr 17, 2:52 pm)29.69 "Hg (Apr 16, 6:52 pm)
Average51 °F78%30.09 "Hg
* Reported Apr 13 5:52 am — Apr 28 5:37 am, Bridgewater, Weather by CustomWeather, © 2017

Note: Actual official high and low records may vary slightly from our data, if they occured in-between our weather recording intervals... More about our weather records

Advertising

Bridgewater Weather History for the Previous 24 Hours

Scroll right to see more
 ConditionsComfort  
Time TempWeatherWind HumidityBarometerVisibility
5:37 am
Fri, Apr 28
57 °FFog.No wind96%29.93 "Hg1 mi
4:52 am57 °FFog.3 mph96%29.93 "Hg3 mi
3:52 am57 °FFog.3 mph93%29.93 "Hg5 mi
3:36 am57 °FLow clouds.3 mph93%29.93 "Hg8 mi
3:14 am57 °FLow clouds.6 mph93%29.93 "Hg10 mi
2:52 am58 °FLow clouds.5 mph90%29.93 "Hg10 mi
2:33 am58 °FLow clouds.6 mph90%29.94 "Hg10 mi
1:52 am57 °FLow clouds.5 mph93%29.93 "Hg10 mi
1:01 am58 °FMostly cloudy.6 mph90%29.95 "Hg10 mi
11:52 pm
Thu, Apr 27
58 °FOvercast.3 mph87%29.94 "Hg10 mi
11:33 pm57 °FLow clouds.6 mph90%29.95 "Hg10 mi
10:52 pm58 °FMostly cloudy.6 mph87%29.95 "Hg10 mi
10:20 pm58 °FLow clouds.3 mph87%29.95 "Hg10 mi
9:52 pm59 °FMostly cloudy.3 mph84%29.96 "Hg10 mi
9:43 pm59 °FMostly cloudy.6 mph84%29.96 "Hg10 mi
8:52 pm59 °FOvercast.5 mph87%29.95 "Hg10 mi
7:52 pm60 °FOvercast.7 mph83%29.93 "Hg10 mi
6:52 pm64 °FOvercast.12 mph75%29.90 "Hg10 mi
5:52 pm67 °FPartly sunny.6 mph68%29.90 "Hg10 mi
4:52 pm68 °FScattered clouds.7 mph65%29.90 "Hg10 mi
4:00 pm68 °FPartly sunny.6 mph65%29.90 "Hg10 mi
3:33 pm69 °FScattered clouds.7 mph66%29.90 "Hg10 mi
2:52 pm66 °FPartly sunny.9 mph73%29.91 "Hg10 mi
1:52 pm63 °FOvercast.5 mph78%29.92 "Hg10 mi
1:35 pm63 °FOvercast.3 mph81%29.92 "Hg10 mi
12:52 pm62 °FOvercast.3 mph80%29.91 "Hg10 mi
12:30 pm61 °FOvercast.No wind81%29.91 "Hg10 mi
11:52 am60 °FLow clouds.5 mph83%29.93 "Hg10 mi
11:29 am59 °FLow clouds.No wind84%29.93 "Hg10 mi
10:52 am57 °FLow clouds.No wind90%29.93 "Hg9 mi
10:35 am56 °FFog.No wind90%29.93 "Hg3 mi
9:52 am55 °FLow clouds.5 mph93%29.93 "Hg8 mi
8:52 am54 °FFog.3 mph93%29.92 "Hg5 mi
7:59 am53 °FFog.3 mph96%29.91 "Hg3 mi
7:35 am53 °FFog.No wind96%29.90 "Hg1 mi
6:56 am53 °FFog.No wind96%29.89 "Hg1 mi
6:32 am53 °FFog.No wind96%29.89 "Hg1 mi
6:20 am53 °FFog.No wind96%29.88 "Hg1 mi
6:02 am53 °FFog.5 mph96%29.88 "Hg2 mi
Weather by CustomWeather, © 2017

See weather overviewHow to use our weather pages